Probability
0 1 2 2 2 3 3 3 3 2 1 0 0 0 0 0 1 1 1 0 0 0 0 0 0 0 1 1 1 1 0 1 2 3 3 3 3 3 3 3 1 1 1
0 1 2 1 2 3 3 3 3 2 1 0 0 0 0 0 0 0 0 0 0 0 0 0 0 1 2 2 2 2 1 1 2 3 3 3 3 3 3 3 2 2 2
0 1 2 1 1 1 2 3 2 1 1 0 0 0 0 0 0 0 0 0 1 0 0 0 0 1 3 4 4 3 2 2 3 3 2 2 2 3 3 3 3 3 3
1 2 2 1 0 1 2 3 2 2 1 0 0 0 0 0 0 1 0 0 0 0 0 0 0 1 2 4 5 4 3 3 3 3 1 0 1 3 3 3 3 3 3
1 2 2 1 0 1 2 2 1 1 1 0 0 0 0 0 0 0 0 0 0 0 0 0 0 0 2 5 6 5 4 3 3 2 1 0 1 2 3 3 3 3 3
0 1 2 1 1 2 2 1 0 1 0 0 0 0 0 0 0 0 0 0 0 0 1 1 1 2 4 6 6 6 5 4 3 2 1 1 1 2 3 3 3 3 3
0 1 2 2 2 2 2 2 2 1 0 0 0 0 0 0 0 0 0 0 0 0 1 2 2 3 5 6 6 6 6 4 2 1 0 0 1 2 3 3 3 3 3
0 0 1 2 2 2 3 4 4 2 0 0 0 0 0 0 0 0 0 0 0 0 0 1 2 3 4 6 6 6 6 4 1 0 0 0 0 1 3 3 3 3 3
0 0 0 1 1 1 2 3 3 2 0 0 0 0 0 0 0 0 0 0 0 0 0 0 1 2 3 5 6 6 6 4 1 0 0 0 0 1 2 3 3 3 3
0 0 0 0 0 0 1 1 1 0 0 0 0 0 0 0 1 0 0 0 0 0 0 0 0 1 2 4 5 6 6 4 1 0 0 0 0 1 2 2 2 2 3
0 0 0 0 0 0 0 0 0 0 0 0 0 0 0 0 0 0 0 0 0 0 0 0 0 1 2 3 4 4 4 2 0 0 0 0 0 0 1 1 1 2 3
1 0 0 0 0 0 0 0 0 0 0 0 0 0 0 0 0 0 0 0 0 0 0 0 0 1 1 2 2 2 1 0 0 0 0 1 1 1 0 0 0 1 2
2 1 1 1 0 0 0 0 0 0 0 0 0 0 0 0 0 0 0 0 0 0 0 0 0 0 0 1 1 1 0 0 0 0 0 1 2 1 0 0 0 1 1
4 3 3 2 1 0 0 0 0 0 0 0 0 0 0 0 0 0 0 0 0 0 0 0 0 0 0 0 0 0 0 0 0 0 0 1 1 1 1 1 1 1 0
4 4 4 3 2 1 0 0 0 0 0 0 0 0 0 0 0 0 0 0 0 0 0 0 0 0 0 0 0 0 0 0 0 0 0 0 1 1 1 2 2 1 1
4 4 4 3 2 1 0 0 0 0 0 0 0 0 0 0 0 0 0 0 0 0 0 0 0 0 0 0 0 0 0 0 0 0 0 0 0 1 2 2 2 1 1
5 5 4 4 3 1 0 0 0 0 0 0 0 0 0 0 0 0 0 0 0 0 0 0 0 0 0 0 0 0 0 0 0 0 0 0 0 1 2 2 2 2 1
6 5 5 6 5 2 0 0 0 0 0 0 0 0 0 0 0 0 0 0 0 0 0 0 0 0 0 0 0 0 0 0 0 0 0 0 0 0 1 2 2 2 1
6 6 7 7 4 2 0 0 0 0 0 0 0 0 0 0 0 0 0 0 0 0 0 0 0 0 0 1 0 0 0 0 0 0 0 0 0 0 0 1 1 1 0
6 6 5 4 2 0 0 0 0 0 0 0 0 0 0 0 0 0 0 0 0 0 0 0 0 0 0 0 0 0 0 0 0 0 0 0 0 0 0 0 0 0 0
6 4 2 1 0 0 0 0 0 0 0 0 0 0 0 0 0 0 0 0 0 0 0 0 0 0 0 0 0 0 0 0 0 0 0 0 0 0 0 0 0 0 0
4 2 0 0 0 0 0 0 0 0 0 0 0 0 0 0 0 0 0 0 0 0 0 0 0 0 0 0 0 0 0 0 0 0 0 0 0 0 0 0 0 0 0
3 1 0 0 0 0 0 0 0 0 0 0 0 0 0 0 0 0 0 0 0 0 0 0 0 0 0 0 0 0 0 0 0 0 0 0 0 0 0 0 1 0 0
2 1 0 0 0 0 0 0 0 0 0 0 0 0 0 0 0 0 0 0 0 0 0 0 0 0 0 0 0 0 0 0 0 1 1 1 1 0 0 0 0 0 0
2 1 0 0 0 0 1 1 1 1 0 0 0 0 0 0 0 0 0 0 0 0 0 0 0 0 0 0 0 0 0 0 0 0 1 1 1 0 0 0 0 0 0
2 1 0 0 0 1 2 2 2 2 1 0 0 0 0 0 0 0 0 0 0 0 0 0 0 0 0 0 0 0 0 0 0 0 0 1 1 0 0 0 0 0 0
Wind_Speed
2 3 2 5 7 8 9 10 11 11 11 12 13 13 14 14 14 14 14 14 13 13 13 12 12 12 13 13 13 13 13 12 12 11 12 13 12 12 12 12 11 9 12
1 1 3 5 8 9 10 11 11 11 12 12 13 13 13 14 14 14 13 13 13 13 12 12 12 12 12 13 12 13 12 11 11 11 12 11 12 11 11 11 11 8 12
1 1 3 6 8 9 10 10 11 11 11 12 12 13 13 13 14 14 13 13 13 12 12 11 11 12 12 12 12 12 11 11 11 11 10 6 8 11 11 11 11 11 11
2 2 3 7 7 9 10 10 10 11 11 12 12 12 13 13 13 13 12 12 12 12 11 11 11 11 11 11 11 10 10 10 10 10 5 5 5 9 10 10 11 11 11
2 2 3 7 7 8 9 9 10 10 11 11 12 12 12 12 13 12 12 11 11 11 10 10 11 11 11 10 10 9 9 9 9 7 5 4 4 8 9 10 10 10 10
2 2 2 7 7 8 8 9 9 9 10 11 11 11 11 12 12 11 11 10 10 10 10 10 10 10 10 9 9 8 8 8 7 5 4 4 4 7 9 10 10 10 10
2 2 2 6 7 8 8 8 8 9 10 10 10 11 10 10 10 10 10 10 9 9 9 8 8 8 8 9 8 8 7 8 5 4 4 4 4 7 9 10 10 10 9
2 2 2 5 7 7 7 8 8 9 9 10 10 10 10 9 9 9 9 9 8 8 8 8 7 6 7 8 7 6 6 6 6 5 4 4 5 7 9 9 9 10 10
3 3 3 3 3 6 7 7 7 8 9 9 10 9 9 9 9 8 8 8 8 7 7 6 6 5 7 7 6 6 5 6 5 3 4 3 5 7 8 8 9 10 10
4 3 3 3 3 3 3 5 6 7 8 8 9 8 8 7 8 7 6 6 6 6 6 5 5 5 6 6 6 5 5 5 4 3 2 3 7 8 8 8 8 8 9
2 3 3 3 3 3 2 3 4 6 7 7 6 6 6 3 3 4 4 5 5 4 4 4 4 4 5 5 4 4 4 2 2 2 2 4 7 8 8 8 8 8 9
0 1 1 1 1 2 1 2 3 3 4 3 3 3 3 3 2 2 2 3 3 3 3 3 4 4 4 3 3 3 2 1 1 2 2 6 7 8 8 8 9 9 8
1 0 1 1 1 1 2 2 2 2 2 3 3 3 2 2 2 2 1 2 2 2 2 3 3 2 2 2 1 1 1 1 1 1 2 6 7 8 8 8 8 9 9
1 1 1 1 1 1 1 2 2 2 2 1 2 2 2 1 1 1 1 1 1 1 1 2 2 2 2 1 1 0 0 0 1 1 2 6 7 7 7 7 8 9 9
2 2 1 2 2 1 1 1 1 1 1 1 1 1 2 2 1 1 0 1 1 1 1 1 1 2 2 2 1 0 0 0 1 1 1 4 4 5 5 6 6 7 7
3 3 2 2 2 2 1 1 1 1 1 1 1 1 2 1 1 1 1 0 0 1 1 1 1 1 1 1 1 1 0 0 1 1 1 0 2 3 4 4 5 6 7
4 3 3 3 3 3 2 1 1 1 1 1 1 1 1 2 2 1 1 0 0 1 1 1 1 1 1 1 1 1 1 1 1 1 1 1 1 0 2 3 4 5 5
4 3 2 3 4 3 2 2 1 2 2 1 1 1 1 1 2 2 1 1 1 1 1 1 1 1 1 1 1 1 1 2 2 1 1 1 1 1 1 1 2 2 3
4 4 3 3 4 3 3 2 2 2 2 1 1 1 1 1 1 2 1 1 1 1 1 1 1 1 1 1 1 2 2 2 1 1 2 2 1 1 1 2 2 2 2
4 4 4 3 3 3 3 3 3 3 2 2 1 1 1 1 1 2 1 1 2 2 1 1 2 2 1 1 2 3 3 3 2 2 2 2 2 2 2 2 2 2 3
4 4 3 3 3 3 2 2 2 1 1 1 1 1 1 1 2 2 1 1 2 2 1 2 2 3 2 2 3 3 3 3 3 2 2 2 2 3 3 3 2 2 2
5 5 4 4 3 3 2 2 2 2 1 0 1 2 1 1 1 2 2 1 1 2 2 2 2 2 1 1 2 2 1 2 2 3 2 2 2 2 3 3 3 3 2
6 6 5 4 4 3 3 3 3 2 2 2 2 1 2 1 1 1 1 1 1 2 1 1 2 2 2 1 1 2 2 1 0 2 3 2 2 2 2 2 3 4 3
7 6 5 5 4 3 4 3 4 3 2 1 0 0 1 1 1 1 1 1 1 1 1 1 2 1 2 1 1 1 1 2 2 0 1 2 2 2 2 2 2 3 3
7 7 5 5 4 4 4 4 4 3 2 1 1 1 1 1 1 1 1 1 1 1 1 2 2 2 1 2 1 1 1 2 1 2 1 0 1 1 1 1 1 2 3
6 6 6 6 4 4 4 4 4 4 3 2 1 1 0 1 1 1 1 1 1 1 1 2 2 2 2 2 1 1 2 1 1 2 2 1 0 1 1 1 1 1 1
Wind_Direction
302 314 70 89 105 109 116 116 114 113 113 115 119 121 122 124 125 124 123 123 123 122 121 121 122 122 123 123 125 128 129 130 131 134 133 132 132 134 133 130 125 124 126
298 335 94 98 102 105 111 114 114 116 117 117 119 121 122 123 123 123 123 124 123 121 121 121 123 123 122 122 124 126 129 132 133 135 135 135 136 137 136 134 132 132 132
46 28 97 103 102 105 111 113 114 115 118 119 120 121 121 123 123 124 125 124 123 122 123 124 125 125 124 124 124 127 131 131 132 133 132 130 137 140 141 139 138 136 135
66 65 95 105 104 109 111 113 115 116 117 119 121 120 121 124 124 126 125 124 122 122 124 125 126 127 127 128 130 133 134 134 134 134 130 130 138 146 146 144 144 142 142
58 55 101 108 108 113 112 112 115 117 118 120 121 121 123 125 125 125 123 122 121 121 123 125 127 128 130 133 136 138 141 143 143 137 131 132 137 153 153 152 151 149 148
58 53 96 106 109 116 117 117 119 120 120 121 121 121 124 126 127 125 123 121 121 121 121 122 125 130 134 139 142 143 145 146 143 138 140 144 150 163 163 160 158 157 154
66 49 98 109 112 120 119 120 120 121 120 119 121 121 124 126 126 125 123 123 124 123 119 116 120 129 137 143 146 148 146 146 141 147 153 158 170 176 171 168 165 162 160
83 58 71 108 114 123 123 122 121 122 123 123 123 123 125 128 128 124 123 123 124 122 119 118 118 136 145 147 147 146 146 148 145 151 157 164 180 183 173 170 170 166 164
62 59 43 51 94 121 126 126 126 129 131 130 126 126 128 129 129 127 125 124 122 120 121 122 119 126 146 147 144 140 136 131 129 146 162 165 181 182 176 175 175 174 171
51 47 42 33 38 55 96 126 131 133 136 135 133 131 128 124 124 124 121 121 122 123 122 120 110 103 125 134 136 139 127 121 132 147 160 174 186 189 185 185 182 182 178
55 37 41 38 36 44 60 114 115 126 131 132 133 133 120 94 90 103 118 128 128 127 122 115 108 97 96 106 120 118 108 108 130 154 172 186 192 195 192 190 185 183 184
150 36 54 53 41 43 67 64 57 73 85 89 90 93 91 90 85 91 101 122 124 111 102 95 87 81 71 66 74 73 82 113 135 171 188 194 199 201 197 193 187 187 189
190 152 112 104 68 64 50 64 60 66 73 77 85 86 88 83 77 59 56 51 50 62 59 56 60 62 67 73 71 75 97 129 176 198 203 201 207 206 201 197 197 199 201
159 194 144 124 97 88 79 71 76 80 84 87 89 97 103 97 81 69 63 48 48 54 62 58 60 56 54 58 73 70 111 186 197 199 198 202 208 208 205 205 209 208 209
174 191 166 133 134 126 106 96 103 106 110 109 98 106 126 130 137 127 105 70 66 84 95 82 67 54 45 32 26 29 339 328 214 179 183 199 200 200 203 209 216 218 216
180 184 165 142 141 129 123 124 109 114 112 102 107 124 131 140 147 132 101 77 70 90 116 112 107 87 57 38 17 14 355 44 83 116 111 175 194 184 206 217 226 224 223
176 171 159 146 128 130 136 140 122 121 108 109 105 104 125 145 151 143 134 129 117 107 106 99 93 88 77 57 27 20 40 62 86 87 91 74 38 205 232 225 231 229 223
160 153 155 146 127 129 124 117 107 111 116 114 96 91 108 131 134 135 143 163 129 117 111 115 104 93 77 71 56 43 50 56 69 85 82 67 34 1 337 253 239 240 226
159 148 141 124 130 133 123 107 95 90 86 83 83 88 87 100 123 133 143 146 128 113 104 129 99 114 111 97 83 56 43 48 44 68 78 71 57 35 19 25 17 339 277
147 139 137 127 126 122 105 87 72 66 56 61 70 71 79 94 116 121 122 122 123 110 92 98 103 95 100 105 82 63 49 45 46 46 54 59 55 44 36 33 18 358 1
144 145 149 142 135 122 108 109 100 89 54 43 46 40 57 80 96 107 112 114 118 116 120 117 106 93 78 90 90 70 47 47 50 41 43 53 49 42 49 47 34 24 10
170 170 166 162 154 150 137 130 131 128 117 98 31 37 49 68 82 101 117 129 127 117 98 98 105 108 87 85 110 112 66 24 35 39 39 61 58 52 49 47 42 35 22
180 182 180 174 168 162 145 113 95 77 61 51 35 19 13 44 71 85 113 123 123 131 136 133 130 129 124 92 80 129 142 193 28 27 35 52 57 52 44 44 47 40 31
188 181 175 174 170 162 149 139 136 137 141 171 138 48 10 27 57 81 83 104 117 124 133 152 130 122 126 131 86 56 110 141 145 104 23 41 48 48 38 39 41 40 35
181 173 172 170 169 164 157 155 144 143 152 126 91 69 33 16 16 47 93 105 107 118 131 119 119 124 131 137 133 117 90 73 101 145 181 43 41 30 32 33 33 34 32
174 166 164 170 177 168 162 160 159 160 156 145 136 123 24 2 1 31 91 103 117 129 139 146 134 127 128 124 129 137 144 147 164 151 159 163 155 11 26 33 29 20 17